GW4795 Weather Reports


time (UTC)temp
C
wind
direction
speed
KPH
gust
KPH
rain 1hr
cm
rain 24hr
cm
rain mn
cm
humidity
%
barometer
mb
20260505082006 13 298 0.0 3.2 0.00 0.00 0.00 80 1013.1
20260505081512 13 298 0.0 3.2 0.00 0.00 0.00 79 1013.0
20260505081004 13 298 0.0 3.2 0.00 0.00 0.00 79 1013.0
20260505080507 13 298 0.0 3.2 0.00 0.00 0.00 79 1013.0
20260505080026 13 298 0.0 3.2 0.00 0.00 0.00 78 1013.0
20260505075507 13 298 0.0 3.2 0.00 0.00 0.00 78 1013.0
20260505075008 13 298 0.0 3.2 0.00 0.00 0.00 78 1013.0
20260505074524 13 298 0.0 1.6 0.00 0.00 0.00 78 1012.9
20260505074007 13 298 0.0 3.2 0.00 0.00 0.00 78 1012.9
20260505073508 13 298 0.0 3.2 0.00 0.00 0.00 78 1012.8
20260505073026 13 298 0.0 3.2 0.00 0.00 0.00 78 1012.7
20260505072508 13 298 0.0 3.2 0.00 0.00 0.00 79 1012.7
20260505072011 13 287 0.0 1.6 0.00 0.00 0.00 79 1012.6
20260505071508 13 31 0.0 0.0 0.00 0.00 0.00 79 1012.6
20260505071005 13 31 0.0 3.2 0.00 0.00 0.00 80 1012.5
20260505070506 13 31 0.0 3.2 0.00 0.00 0.00 79 1012.3
20260505070023 14 31 0.0 3.2 0.00 0.00 0.00 80 1012.2
20260505065507 14 317 0.0 3.2 0.00 0.00 0.00 81 1012.2
20260505065006 14 311 0.0 3.2 0.00 0.00 0.00 80 1012.1
20260505064520 14 311 0.0 3.2 0.00 0.00 0.00 79 1011.9
20260505064008 14 315 1.6 1.6 0.00 0.00 0.00 78 1011.9
20260505063508 15 300 0.0 1.6 0.00 0.00 0.00 78 1011.8
20260505063024 15 300 0.0 3.2 0.00 0.00 0.00 77 1011.9
20260505062511 15 300 1.6 3.2 0.00 0.00 0.00 77 1011.9
20260505062010 15 311 0.0 3.2 0.00 0.00 0.00 76 1011.8
20260505061526 15 311 0.0 3.2 0.00 0.00 0.00 75 1011.8
20260505061009 15 311 0.0 3.2 0.00 0.00 0.00 74 1011.8
20260505060504 15 311 0.0 3.2 0.00 0.00 0.00 73 1011.8
20260505060016 15 311 0.0 3.2 0.00 0.00 0.00 73 1011.7
20260505055506 15 311 0.0 3.2 0.00 0.00 0.00 72 1011.7
20260505055009 15 311 0.0 3.2 0.00 0.00 0.00 72 1011.6
20260505054524 15 27 0.0 3.2 0.00 0.00 0.00 72 1011.5
20260505054008 15 27 0.0 3.2 0.00 0.00 0.00 71 1011.6
20260505053511 16 27 0.0 3.2 0.00 0.00 0.00 71 1011.6
20260505053026 16 27 0.0 3.2 0.00 0.00 0.00 71 1011.5
20260505052509 16 112 0.0 3.2 0.00 0.00 0.00 70 1011.4
20260505052009 16 102 0.0 3.2 0.00 0.00 0.00 70 1011.4
20260505051526 16 102 0.0 3.2 0.00 0.00 0.00 70 1011.4
20260505051005 16 102 0.0 3.2 0.00 0.00 0.00 69 1011.3
20260505050507 16 102 0.0 1.6 0.00 0.00 0.00 68 1011.3
20260505041506 17 360 0.0 3.2 0.00 0.00 0.00 63 1011.0
20260505041003 18 348 0.0 3.2 0.00 0.00 0.00 62 1010.9
20260505040504 18 237 0.0 3.2 0.00 0.00 0.00 62 1010.9
20260505040018 18 225 0.0 1.6 0.00 0.00 0.00 62 1010.8
20260505035511 18 225 0.0 3.2 0.00 0.00 0.00 61 1010.6
20260505035004 18 224 1.6 3.2 0.00 0.00 0.00 61 1010.4
20260505034516 18 262 0.0 3.2 0.00 0.00 0.00 60 1010.4
20260505034004 18 244 0.0 3.2 0.00 0.00 0.00 60 1010.4
20260505033505 19 253 0.0 6.4 0.00 0.00 0.00 59 1010.3
20260505033022 19 269 3.2 6.4 0.00 0.00 0.00 59 1010.3
20260505032502 19 284 1.6 4.8 0.00 0.00 0.00 58 1010.2
20260505032003 19 283 1.6 4.8 0.00 0.00 0.00 57 1010.3
20260505031503 20 261 0.0 8.0 0.00 0.00 0.00 57 1010.2
20260505031003 20 9 3.2 8.0 0.00 0.00 0.00 57 1010.2
20260505030503 20 309 1.6 16.1 0.00 0.00 0.00 56 1010.1
20260505030015 20 321 4.8 16.1 0.00 0.00 0.00 56 1010.1
20260505025504 20 304 3.2 14.5 0.00 0.00 0.00 55 1009.9
20260505025004 20 252 6.4 14.5 0.00 0.00 0.00 54 1009.9
20260505024512 20 294 6.4 14.5 0.00 0.00 0.00 54 1009.7
20260505024008 20 299 3.2 12.9 0.00 0.00 0.00 53 1009.7
20260505023507 21 269 6.4 14.5 0.00 0.00 0.00 53 1009.7
20260505023018 21 315 8.0 14.5 0.00 0.00 0.00 53 1009.7
20260505022508 21 289 4.8 14.5 0.00 0.00 0.00 52 1009.8
20260505022011 21 360 6.4 14.5 0.00 0.00 0.00 51 1009.8
20260505021522 21 344 6.4 12.9 0.00 0.00 0.00 51 1009.8
20260505021007 21 317 3.2 14.5 0.00 0.00 0.00 49 1009.8
20260505020503 21 295 6.4 17.7 0.00 0.00 0.00 49 1009.8
20260505020008 22 271 11.3 20.9 0.00 0.00 0.00 47 1009.8
20260505015509 22 294 11.3 20.9 0.00 0.00 0.00 46 1009.8
20260505015006 22 306 8.0 17.7 0.00 0.00 0.00 45 1009.7
20260505014512 23 252 9.7 19.3 0.00 0.00 0.00 43 1009.7
20260505014004 23 290 9.7 19.3 0.00 0.00 0.00 42 1009.7
20260505013504 23 246 6.4 17.7 0.00 0.00 0.00 43 1009.7
20260505013016 24 258 6.4 14.5 0.00 0.00 0.00 43 1009.7
20260505012506 25 275 4.8 14.5 0.00 0.00 0.00 43 1009.6
20260505012009 25 55 3.2 14.5 0.00 0.00 0.00 43 1009.6
20260505011522 25 254 6.4 12.9 0.00 0.00 0.00 43 1009.7
20260505011007 25 259 6.4 12.9 0.00 0.00 0.00 43 1009.7
20260505010506 26 289 6.4 11.3 0.00 0.00 0.00 41 1009.6
20260505010006 26 333 3.2 9.7 0.00 0.00 0.00 40 1009.6
20260505005503 26 234 4.8 9.7 0.00 0.00 0.00 37 1009.6
20260505005003 26 206 4.8 12.9 0.00 0.00 0.00 37 1009.6
20260505004516 26 296 6.4 12.9 0.00 0.00 0.00 38 1009.6
20260505004003 26 221 6.4 9.7 0.00 0.00 0.00 39 1009.6
20260505003514 26 274 4.8 11.3 0.00 0.00 0.00 39 1009.6
20260505003015 26 284 6.4 12.9 0.00 0.00 0.00 39 1009.6
20260505002508 27 333 4.8 12.9 0.00 0.00 0.00 39 1009.5
20260505002007 27 292 4.8 12.9 0.00 0.00 0.00 39 1009.5
20260505001522 27 257 1.6 12.9 0.00 0.00 0.00 38 1009.5
20260505001007 27 242 1.6 14.5 0.00 0.00 0.00 37 1009.6
20260505000507 27 267 4.8 14.5 0.00 0.00 0.00 37 1009.6
20260505000038 27 217 4.8 14.5 0.00 0.00 0.00 37 1009.7
20260504235509 27 270 4.8 14.5 0.00 0.00 0.00 35 1009.7
20260504235009 27 292 3.2 11.3 0.00 0.00 0.00 36 1009.7
20260504234512 27 164 6.4 11.3 0.00 0.00 0.00 36 1009.7
20260504234003 27 202 1.6 12.9 0.00 0.00 0.00 34 1009.7
20260504233504 27 207 4.8 14.5 0.00 0.00 0.00 34 1009.9
20260504233014 27 171 6.4 14.5 0.00 0.00 0.00 34 1009.8
20260504232505 27 258 4.8 12.9 0.00 0.00 0.00 34 1009.7
20260504232007 28 235 3.2 16.1 0.00 0.00 0.00 34 1009.8
20260504231520 28 294 4.8 16.1 0.00 0.00 0.00 33 1009.9
20260504231013 28 316 4.8 9.7 0.00 0.00 0.00 34 1010.0
20260504230506 28 207 4.8 9.7 0.00 0.00 0.00 34 1009.9
20260504230021 28 234 3.2 12.9 0.00 0.00 0.00 32 1010.0
20260504225508 28 296 4.8 12.9 0.00 0.00 0.00 32 1010.0
20260504225007 28 267 6.4 11.3 0.00 0.00 0.00 33 1009.9
20260504224526 28 246 4.8 12.9 0.00 0.00 0.00 33 1010.0
20260504224013 28 250 1.6 16.1 0.00 0.00 0.00 31 1009.9
20260504223504 28 290 6.4 14.5 0.00 0.00 0.00 31 1009.9
20260504223012 28 257 4.8 14.5 0.00 0.00 0.00 30 1010.0
20260504222504 29 149 3.2 14.5 0.00 0.00 0.00 33 1010.0
20260504222007 29 238 6.4 12.9 0.00 0.00 0.00 35 1009.9
20260504221525 29 13 1.6 14.5 0.00 0.00 0.00 35 1010.1
20260504221007 29 15 3.2 14.5 0.00 0.00 0.00 33 1010.2
20260504220508 29 347 4.8 12.9 0.00 0.00 0.00 35 1010.3
20260504220038 28 282 3.2 12.9 0.00 0.00 0.00 34 1010.3
20260504215510 28 254 1.6 12.9 0.00 0.00 0.00 34 1010.4
20260504215010 28 9 3.2 9.7 0.00 0.00 0.00 32 1010.4
20260504214528 28 352 4.8 12.9 0.00 0.00 0.00 35 1010.6
20260504214006 28 226 6.4 12.9 0.00 0.00 0.00 36 1010.6
20260504213509 28 344 4.8 12.9 0.00 0.00 0.00 34 1010.6
20260504213029 28 273 4.8 11.3 0.00 0.00 0.00 35 1010.7
20260504212503 28 285 4.8 12.9 0.00 0.00 0.00 37 1010.8
20260504212009 28 302 3.2 12.9 0.00 0.00 0.00 40 1010.8
20260504211515 28 300 8.0 12.9 0.00 0.00 0.00 37 1010.8
20260504211007 28 19 3.2 12.9 0.00 0.00 0.00 37 1010.8
20260504210507 28 279 4.8 12.9 0.00 0.00 0.00 37 1010.8
20260504210020 28 276 6.4 12.9 0.00 0.00 0.00 37 1010.9
20260504205511 28 286 3.2 12.9 0.00 0.00 0.00 39 1010.9
20260504205009 28 306 4.8 12.9 0.00 0.00 0.00 40 1010.9
20260504204535 28 301 6.4 12.9 0.00 0.00 0.00 39 1010.9
20260504204007 27 317 4.8 12.9 0.00 0.00 0.00 37 1010.9
20260504203510 27 318 4.8 12.9 0.00 0.00 0.00 40 1011.0
20260504203029 27 351 3.2 11.3 0.00 0.00 0.00 40 1011.0
20260504202510 27 352 3.2 9.7 0.00 0.00 0.00 40 1010.9
20260504202008 27 250 1.6 9.7 0.00 0.00 0.00 39 1011.0
20260504201527 27 348 4.8 9.7 0.00 0.00 0.00 45 1011.0
20260504201003 26 292 4.8 11.3 0.00 0.00 0.00 38 1011.0
20260504200503 26 286 1.6 11.3 0.00 0.00 0.00 37 1011.0
20260504200010 26 230 3.2 9.7 0.00 0.00 0.00 42 1011.1
20260504195503 26 302 4.8 9.7 0.00 0.00 0.00 40 1011.1
20260504195003 26 317 3.2 12.9 0.00 0.00 0.00 40 1011.0
20260504194504 26 296 4.8 12.9 0.00 0.00 0.00 40 1011.1
20260504194006 26 304 4.8 11.3 0.00 0.00 0.00 44 1011.1
20260504193504 25 342 4.8 12.9 0.00 0.00 0.00 47 1011.1
20260504193008 25 220 6.4 14.5 0.00 0.00 0.00 43 1011.1
20260504192504 25 288 6.4 14.5 0.00 0.00 0.00 46 1011.3
20260504192003 24 267 1.6 14.5 0.00 0.00 0.00 46 1011.2
20260504191508 24 207 6.4 14.5 0.00 0.00 0.00 44 1011.2
20260504191005 24 130 3.2 14.5 0.00 0.00 0.00 45 1011.2
20260504190503 24 173 6.4 14.5 0.00 0.00 0.00 46 1011.2
20260504190013 24 182 6.4 14.5 0.00 0.00 0.00 43 1011.3
20260504185506 24 257 3.2 14.5 0.00 0.00 0.00 51 1011.3
20260504185005 24 232 3.2 11.3 0.00 0.00 0.00 46 1011.3
20260504184506 24 192 4.8 11.3 0.00 0.00 0.00 47 1011.3
20260504184003 24 169 1.6 9.7 0.00 0.00 0.00 48 1011.3
20260504183502 24 161 1.6 9.7 0.00 0.00 0.00 48 1011.3
20260504183003 23 191 1.6 6.4 0.00 0.00 0.00 49 1011.4
20260504182502 23 186 1.6 6.4 0.00 0.00 0.00 51 1011.4
20260504182003 23 130 1.6 4.8 0.00 0.00 0.00 53 1011.3
20260504181511 23 5 3.2 4.8 0.00 0.00 0.00 52 1011.3
20260504181007 23 134 1.6 8.0 0.00 0.00 0.00 52 1011.3
20260504180504 22 343 1.6 8.0 0.00 0.00 0.00 53 1011.2
20260504180013 22 154 3.2 4.8 0.00 0.00 0.00 1011.2
20260504175509 22 157 0.0 6.4 0.00 0.00 0.00 1011.3
20260504175008 22 269 1.6 6.4 0.00 0.00 0.00 60 1011.2
20260504174518 22 92 1.6 4.8 0.00 0.00 0.00 60 1011.2
20260504174003 22 100 1.6 4.8 0.00 0.00 0.00 52 1011.2
20260504173504 22 152 0.0 3.2 0.00 0.00 0.00 56 1011.2
20260504173004 21 165 1.6 3.2 0.00 0.00 0.00 54 1011.3
20260504172503 21 293 0.0 3.2 0.00 0.00 0.00 58 1011.3
20260504172006 21 262 0.0 6.4 0.00 0.00 0.00 59 1011.3
20260504171508 21 147 3.2 6.4 0.00 0.00 0.00 60 1011.3
20260504171005 21 191 1.6 4.8 0.00 0.00 0.00 57 1011.3
20260504170504 20 315 0.0 3.2 0.00 0.00 0.00 60 1011.3
20260504151011 12 98 0.0 3.2 0.00 0.00 0.00 88 1011.0
20260504150504 11 100 0.0 3.2 0.00 0.00 0.00 89 1011.1
20260504141006 9 19 0.0 3.2 0.00 0.00 0.00 91 1010.7
20260504140507 9 19 0.0 3.2 0.00 0.00 0.00 91 1010.7
20260504130506 9 19 0.0 0.0 0.00 0.00 0.00 87 1010.2
20260504110504 10 5 0.0 0.0 0.00 0.00 0.00 85 1010.3
20260504100507 11 344 0.0 3.2 0.00 0.00 0.00 85 1010.2